contact:dominique.lefevre@mio.osupytheas.fr, maurice.libes@osupytheas.fr, didier.mallarino@osupytheas.fr
Project:EMSO http://www.emso-fr.org/EMSO-France
Depth: 2436.0 m
Title:EMSO Ligure Ouest : Data MII capteur MICROCAT
DateTime_Computer,Latitude,Longitude,Temperature,Conductivity,Pressure,DateTime_Instrument
DateTime_Computer,Latitude,Longitude,degC,S m-1,dbar,DateTime_Instrument
2020-07-15T00:01:40Z,42.805,6.029,13.2971,4.59975,2470.11,2020-7-15T02:02:27Z
2020-07-15T00:04:43Z,42.805,6.029,13.2974,4.59976,2470.087,2020-7-15T02:05:30Z
2020-07-15T00:07:46Z,42.805,6.029,13.2973,4.59976,2470.087,2020-7-15T02:08:33Z
2020-07-15T00:10:50Z,42.805,6.029,13.2972,4.59974,2470.11,2020-7-15T02:11:36Z
2020-07-15T00:13:53Z,42.805,6.029,13.2975,4.59976,2470.087,2020-7-15T02:14:40Z
2020-07-15T00:16:56Z,42.805,6.029,13.2975,4.59976,2470.147,2020-7-15T02:17:43Z
2020-07-15T00:19:59Z,42.805,6.029,13.2974,4.59975,2470.147,2020-7-15T02:20:46Z
2020-07-15T00:23:03Z,42.805,6.029,13.2972,4.59976,2470.124,2020-7-15T02:23:49Z
2020-07-15T00:26:06Z,42.805,6.029,13.2977,4.59976,2470.133,2020-7-15T02:26:52Z
2020-07-15T00:29:09Z,42.805,6.029,13.2974,4.59976,2470.11,2020-7-15T02:29:56Z
2020-07-15T00:32:12Z,42.805,6.029,13.2971,4.59977,2470.124,2020-7-15T02:32:59Z
2020-07-15T00:35:16Z,42.805,6.029,13.2976,4.59975,2470.096,2020-7-15T02:36:02Z
2020-07-15T00:38:19Z,42.805,6.029,13.2972,4.59976,2470.11,2020-7-15T02:39:06Z
2020-07-15T00:41:22Z,42.805,6.029,13.2974,4.59976,2470.133,2020-7-15T02:42:09Z
2020-07-15T00:44:25Z,42.805,6.029,13.2975,4.59975,2470.11,2020-7-15T02:45:12Z
2020-07-15T00:47:29Z,42.805,6.029,13.2971,4.59976,2470.11,2020-7-15T02:48:15Z
2020-07-15T00:50:32Z,42.805,6.029,13.2974,4.59976,2470.11,2020-7-15T02:51:19Z
2020-07-15T00:53:35Z,42.805,6.029,13.2973,4.59976,2470.11,2020-7-15T02:54:22Z
2020-07-15T00:56:38Z,42.805,6.029,13.2974,4.59976,2470.11,2020-7-15T02:57:25Z
2020-07-15T00:59:42Z,42.805,6.029,13.2974,4.59976,2470.124,2020-7-15T03:00:28Z
2020-07-15T01:02:45Z,42.805,6.029,13.2973,4.59976,2470.133,2020-7-15T03:03:31Z
2020-07-15T01:05:48Z,42.805,6.029,13.2971,4.59977,2470.133,2020-7-15T03:06:35Z
2020-07-15T01:08:51Z,42.805,6.029,13.2974,4.59977,2470.11,2020-7-15T03:09:38Z
2020-07-15T01:11:54Z,42.805,6.029,13.2974,4.59976,2470.156,2020-7-15T03:12:41Z
2020-07-15T01:14:58Z,42.805,6.029,13.2971,4.59976,2470.133,2020-7-15T03:15:44Z
2020-07-15T01:18:01Z,42.805,6.029,13.2974,4.59975,2470.133,2020-7-15T03:18:48Z
2020-07-15T01:21:04Z,42.805,6.029,13.2974,4.59976,2470.133,2020-7-15T03:21:51Z
2020-07-15T01:24:07Z,42.805,6.029,13.2976,4.59976,2470.147,2020-7-15T03:24:54Z
2020-07-15T01:27:10Z,42.805,6.029,13.2976,4.59976,2470.147,2020-7-15T03:27:57Z
2020-07-15T01:30:14Z,42.805,6.029,13.2977,4.59976,2470.124,2020-7-15T03:31:00Z
2020-07-15T01:33:17Z,42.805,6.029,13.2973,4.59977,2470.171,2020-7-15T03:34:04Z
2020-07-15T01:36:20Z,42.805,6.029,13.2972,4.59975,2470.124,2020-7-15T03:37:07Z
2020-07-15T01:39:23Z,42.805,6.029,13.2974,4.59976,2470.156,2020-7-15T03:40:10Z
2020-07-15T01:42:27Z,42.805,6.029,13.2976,4.59976,2470.096,2020-7-15T03:43:13Z
2020-07-15T01:45:30Z,42.805,6.029,13.2974,4.59976,2470.133,2020-7-15T03:46:17Z
2020-07-15T01:48:33Z,42.805,6.029,13.2971,4.59976,2470.133,2020-7-15T03:49:20Z
2020-07-15T01:51:36Z,42.805,6.029,13.2972,4.59976,2470.133,2020-7-15T03:52:23Z
2020-07-15T01:54:40Z,42.805,6.029,13.2972,4.59978,2470.133,2020-7-15T03:55:26Z
2020-07-15T01:57:43Z,42.805,6.029,13.2971,4.59978,2470.133,2020-7-15T03:58:30Z
2020-07-15T02:00:46Z,42.805,6.029,13.2972,4.59976,2470.147,2020-7-15T04:01:33Z
2020-07-15T02:03:49Z,42.805,6.029,13.2972,4.59976,2470.147,2020-7-15T04:04:36Z
2020-07-15T02:06:52Z,42.805,6.029,13.2974,4.59978,2470.156,2020-7-15T04:07:39Z
2020-07-15T02:09:56Z,42.805,6.029,13.2969,4.59978,2470.147,2020-7-15T04:10:43Z
2020-07-15T02:12:59Z,42.805,6.029,13.2974,4.59976,2470.156,2020-7-15T04:13:46Z
2020-07-15T02:16:02Z,42.805,6.029,13.2974,4.59976,2470.133,2020-7-15T04:16:49Z
2020-07-15T02:19:05Z,42.805,6.029,13.2976,4.59977,2470.133,2020-7-15T04:19:52Z
2020-07-15T02:22:09Z,42.805,6.029,13.2976,4.59976,2470.133,2020-7-15T04:22:55Z
2020-07-15T02:25:12Z,42.805,6.029,13.2974,4.59976,2470.133,2020-7-15T04:25:59Z
2020-07-15T02:28:15Z,42.805,6.029,13.2974,4.59976,2470.133,2020-7-15T04:29:02Z
2020-07-15T02:31:18Z,42.805,6.029,13.2973,4.59976,2470.133,2020-7-15T04:32:05Z
2020-07-15T02:34:22Z,42.805,6.029,13.2969,4.59975,2470.133,2020-7-15T04:35:08Z
2020-07-15T02:37:25Z,42.805,6.029,13.2974,4.59976,2470.147,2020-7-15T04:38:12Z
2020-07-15T02:40:28Z,42.805,6.029,13.2974,4.59976,2470.124,2020-7-15T04:41:15Z
2020-07-15T02:43:31Z,42.805,6.029,13.2973,4.59976,2470.087,2020-7-15T04:44:18Z
2020-07-15T02:46:35Z,42.805,6.029,13.2971,4.59975,2470.087,2020-7-15T04:47:21Z
2020-07-15T02:49:38Z,42.805,6.029,13.2976,4.59978,2470.147,2020-7-15T04:50:24Z
2020-07-15T02:52:41Z,42.805,6.029,13.2972,4.59976,2470.156,2020-7-15T04:53:28Z
2020-07-15T02:55:45Z,42.805,6.029,13.2972,4.59976,2470.171,2020-7-15T04:56:31Z
2020-07-15T02:58:48Z,42.805,6.029,13.2976,4.59976,2470.156,2020-7-15T04:59:35Z
2020-07-15T03:01:51Z,42.805,6.029,13.2972,4.59976,2470.171,2020-7-15T05:02:38Z
2020-07-15T03:04:54Z,42.805,6.029,13.2968,4.59976,2470.124,2020-7-15T05:05:41Z
2020-07-15T03:07:58Z,42.805,6.029,13.2977,4.59976,2470.171,2020-7-15T05:08:44Z
2020-07-15T03:11:01Z,42.805,6.029,13.2974,4.59975,2470.147,2020-7-15T05:11:48Z
2020-07-15T03:14:04Z,42.805,6.029,13.2974,4.59976,2470.133,2020-7-15T05:14:51Z
2020-07-15T03:17:07Z,42.805,6.029,13.2972,4.59978,2470.133,2020-7-15T05:17:54Z
2020-07-15T03:20:10Z,42.805,6.029,13.2974,4.59977,2470.18,2020-7-15T05:20:57Z
2020-07-15T03:23:14Z,42.805,6.029,13.2970,4.59978,2470.147,2020-7-15T05:24:00Z
2020-07-15T03:26:17Z,42.805,6.029,13.2972,4.59976,2470.156,2020-7-15T05:27:04Z
2020-07-15T03:29:20Z,42.805,6.029,13.2975,4.59976,2470.11,2020-7-15T05:30:07Z
2020-07-15T03:32:23Z,42.805,6.029,13.2972,4.59976,2470.156,2020-7-15T05:33:10Z
2020-07-15T03:35:27Z,42.805,6.029,13.2974,4.59976,2470.11,2020-7-15T05:36:13Z
2020-07-15T03:38:30Z,42.805,6.029,13.2971,4.59976,2470.119,2020-7-15T05:39:17Z
2020-07-15T03:41:33Z,42.805,6.029,13.2968,4.59976,2470.133,2020-7-15T05:42:20Z
2020-07-15T03:44:36Z,42.805,6.029,13.2973,4.59976,2470.147,2020-7-15T05:45:23Z
2020-07-15T03:47:40Z,42.805,6.029,13.2974,4.59976,2470.11,2020-7-15T05:48:26Z
2020-07-15T03:50:43Z,42.805,6.029,13.2971,4.59976,2470.147,2020-7-15T05:51:30Z
2020-07-15T03:53:46Z,42.805,6.029,13.2973,4.59976,2470.11,2020-7-15T05:54:33Z
2020-07-15T03:56:49Z,42.805,6.029,13.2973,4.59978,2470.147,2020-7-15T05:57:36Z
2020-07-15T03:59:53Z,42.805,6.029,13.2974,4.59976,2470.11,2020-7-15T06:00:39Z
2020-07-15T04:02:56Z,42.805,6.029,13.2973,4.59976,2470.124,2020-7-15T06:03:43Z
2020-07-15T04:05:59Z,42.805,6.029,13.2971,4.59976,2470.147,2020-7-15T06:06:46Z
2020-07-15T04:09:02Z,42.805,6.029,13.2974,4.59978,2470.147,2020-7-15T06:09:49Z
2020-07-15T04:12:06Z,42.805,6.029,13.2974,4.59976,2470.147,2020-7-15T06:12:52Z
2020-07-15T04:15:09Z,42.805,6.029,13.2974,4.59976,2470.1,2020-7-15T06:15:56Z
2020-07-15T04:18:12Z,42.805,6.029,13.2971,4.59978,2470.156,2020-7-15T06:18:59Z
2020-07-15T04:21:15Z,42.805,6.029,13.2973,4.59978,2470.124,2020-7-15T06:22:02Z
2020-07-15T04:24:19Z,42.805,6.029,13.2975,4.59976,2470.11,2020-7-15T06:25:05Z
2020-07-15T04:27:22Z,42.805,6.029,13.2974,4.59976,2470.133,2020-7-15T06:28:09Z
2020-07-15T04:30:25Z,42.805,6.029,13.2974,4.59976,2470.1,2020-7-15T06:31:12Z
2020-07-15T04:33:28Z,42.805,6.029,13.2974,4.59976,2470.087,2020-7-15T06:34:15Z
2020-07-15T04:36:32Z,42.805,6.029,13.2970,4.59976,2470.087,2020-7-15T06:37:18Z
2020-07-15T04:39:35Z,42.805,6.029,13.2971,4.59975,2470.11,2020-7-15T06:40:21Z
2020-07-15T04:42:38Z,42.805,6.029,13.2975,4.59977,2470.133,2020-7-15T06:43:25Z
2020-07-15T04:45:41Z,42.805,6.029,13.2975,4.59976,2470.124,2020-7-15T06:46:28Z
2020-07-15T04:48:45Z,42.805,6.029,13.2975,4.59978,2470.133,2020-7-15T06:49:31Z
2020-07-15T04:51:48Z,42.805,6.029,13.2973,4.59977,2470.124,2020-7-15T06:52:35Z
2020-07-15T04:54:51Z,42.805,6.029,13.2976,4.59977,2470.11,2020-7-15T06:55:38Z
2020-07-15T04:57:55Z,42.805,6.029,13.2976,4.59975,2470.133,2020-7-15T06:58:41Z
2020-07-15T05:00:58Z,42.805,6.029,13.2973,4.59976,2470.11,2020-7-15T07:01:45Z
2020-07-15T05:04:01Z,42.805,6.029,13.2975,4.59977,2470.087,2020-7-15T07:04:48Z
2020-07-15T05:07:04Z,42.805,6.029,13.2974,4.59978,2470.11,2020-7-15T07:07:51Z
2020-07-15T05:10:07Z,42.805,6.029,13.2970,4.59976,2470.11,2020-7-15T07:10:54Z
2020-07-15T05:13:11Z,42.805,6.029,13.2973,4.59977,2470.147,2020-7-15T07:13:57Z
2020-07-15T05:16:14Z,42.805,6.029,13.2970,4.59976,2470.11,2020-7-15T07:17:01Z
2020-07-15T05:19:17Z,42.805,6.029,13.2972,4.59976,2470.11,2020-7-15T07:20:04Z
2020-07-15T05:22:21Z,42.805,6.029,13.2974,4.59976,2470.1,2020-7-15T07:23:07Z
2020-07-15T05:25:24Z,42.805,6.029,13.2974,4.59978,2470.133,2020-7-15T07:26:11Z
2020-07-15T05:28:27Z,42.805,6.029,13.2974,4.59976,2470.133,2020-7-15T07:29:14Z
2020-07-15T05:31:30Z,42.805,6.029,13.2977,4.59978,2470.124,2020-7-15T07:32:17Z
2020-07-15T05:34:34Z,42.805,6.029,13.2973,4.59976,2470.124,2020-7-15T07:35:20Z
2020-07-15T05:37:37Z,42.805,6.029,13.2974,4.59976,2470.087,2020-7-15T07:38:24Z
2020-07-15T05:40:40Z,42.805,6.029,13.2972,4.59976,2470.1,2020-7-15T07:41:27Z
2020-07-15T05:43:43Z,42.805,6.029,13.2974,4.59977,2470.063,2020-7-15T07:44:30Z
2020-07-15T05:46:47Z,42.805,6.029,13.2974,4.59975,2470.11,2020-7-15T07:47:33Z
2020-07-15T05:49:50Z,42.805,6.029,13.2970,4.59976,2470.1,2020-7-15T07:50:37Z
2020-07-15T05:52:53Z,42.805,6.029,13.2971,4.59977,2470.087,2020-7-15T07:53:40Z
2020-07-15T05:55:56Z,42.805,6.029,13.2975,4.59978,2470.124,2020-7-15T07:56:43Z
2020-07-15T05:58:59Z,42.805,6.029,13.2970,4.59977,2470.124,2020-7-15T07:59:46Z
2020-07-15T06:02:03Z,42.805,6.029,13.2974,4.59977,2470.087,2020-7-15T08:02:50Z
2020-07-15T06:05:06Z,42.805,6.029,13.2975,4.59977,2470.087,2020-7-15T08:05:53Z
2020-07-15T06:08:09Z,42.805,6.029,13.2976,4.59978,2470.124,2020-7-15T08:08:56Z
2020-07-15T06:11:12Z,42.805,6.029,13.2976,4.59978,2470.087,2020-7-15T08:11:59Z
2020-07-15T06:14:16Z,42.805,6.029,13.2976,4.59975,2470.11,2020-7-15T08:15:02Z
2020-07-15T06:17:19Z,42.805,6.029,13.2976,4.59976,2470.087,2020-7-15T08:18:06Z
2020-07-15T06:20:22Z,42.805,6.029,13.2974,4.59976,2470.11,2020-7-15T08:21:09Z
2020-07-15T06:23:25Z,42.805,6.029,13.2973,4.59975,2470.1,2020-7-15T08:24:12Z
2020-07-15T06:26:29Z,42.805,6.029,13.2977,4.59976,2470.087,2020-7-15T08:27:15Z
2020-07-15T06:29:32Z,42.805,6.029,13.2971,4.59976,2470.1,2020-7-15T08:30:19Z
2020-07-15T06:32:35Z,42.805,6.029,13.2971,4.59975,2470.1,2020-7-15T08:33:22Z
2020-07-15T06:35:38Z,42.805,6.029,13.2969,4.59976,2470.063,2020-7-15T08:36:25Z
2020-07-15T06:38:42Z,42.805,6.029,13.2971,4.59977,2470.087,2020-7-15T08:39:28Z
2020-07-15T06:41:45Z,42.805,6.029,13.2971,4.59978,2470.087,2020-7-15T08:42:32Z
2020-07-15T06:44:48Z,42.805,6.029,13.2974,4.59978,2470.063,2020-7-15T08:45:35Z
2020-07-15T06:47:51Z,42.805,6.029,13.2969,4.59976,2470.087,2020-7-15T08:48:38Z
2020-07-15T06:50:55Z,42.805,6.029,13.2969,4.59976,2470.077,2020-7-15T08:51:41Z
2020-07-15T06:53:58Z,42.805,6.029,13.2974,4.59976,2470.087,2020-7-15T08:54:45Z
2020-07-15T06:57:01Z,42.805,6.029,13.2974,4.59978,2470.087,2020-7-15T08:57:48Z
2020-07-15T07:00:04Z,42.805,6.029,13.2976,4.59977,2470.1,2020-7-15T09:00:51Z
2020-07-15T07:03:08Z,42.805,6.029,13.2970,4.59976,2470.063,2020-7-15T09:03:54Z
2020-07-15T07:06:11Z,42.805,6.029,13.2975,4.59977,2470.077,2020-7-15T09:06:58Z
2020-07-15T07:09:14Z,42.805,6.029,13.2974,4.59976,2470.087,2020-7-15T09:10:01Z
2020-07-15T07:12:17Z,42.805,6.029,13.2972,4.59978,2470.077,2020-7-15T09:13:04Z
2020-07-15T07:15:21Z,42.805,6.029,13.2974,4.59977,2470.1,2020-7-15T09:16:07Z
2020-07-15T07:18:24Z,42.805,6.029,13.2976,4.59977,2470.063,2020-7-15T09:19:11Z
2020-07-15T07:21:27Z,42.805,6.029,13.2974,4.59976,2470.063,2020-7-15T09:22:14Z
2020-07-15T07:24:30Z,42.805,6.029,13.2973,4.59976,2470.063,2020-7-15T09:25:17Z
2020-07-15T07:27:34Z,42.805,6.029,13.2974,4.59975,2470.053,2020-7-15T09:28:20Z
2020-07-15T07:30:37Z,42.805,6.029,13.2970,4.59976,2470.077,2020-7-15T09:31:24Z
2020-07-15T07:33:40Z,42.805,6.029,13.2978,4.59978,2470.077,2020-7-15T09:34:27Z
2020-07-15T07:36:43Z,42.805,6.029,13.2974,4.59978,2470.1,2020-7-15T09:37:30Z
2020-07-15T07:39:47Z,42.805,6.029,13.2976,4.59978,2470.077,2020-7-15T09:40:33Z
2020-07-15T07:42:50Z,42.805,6.029,13.2971,4.59976,2470.026,2020-7-15T09:43:37Z
2020-07-15T07:45:53Z,42.805,6.029,13.2975,4.59978,2470.04,2020-7-15T09:46:40Z
2020-07-15T07:48:57Z,42.805,6.029,13.2974,4.59976,2470.087,2020-7-15T09:49:43Z
2020-07-15T07:52:00Z,42.805,6.029,13.2975,4.59976,2470.053,2020-7-15T09:52:47Z
2020-07-15T07:55:03Z,42.805,6.029,13.2973,4.59976,2470.053,2020-7-15T09:55:50Z
2020-07-15T07:58:06Z,42.805,6.029,13.2974,4.59976,2470.04,2020-7-15T09:58:53Z
2020-07-15T08:01:10Z,42.805,6.029,13.2971,4.59978,2470.077,2020-7-15T10:01:56Z
2020-07-15T08:04:13Z,42.805,6.029,13.2974,4.59978,2470.04,2020-7-15T10:05:00Z
2020-07-15T08:07:16Z,42.805,6.029,13.2971,4.59976,2470.077,2020-7-15T10:08:03Z
2020-07-15T08:10:19Z,42.805,6.029,13.2973,4.59976,2470.063,2020-7-15T10:11:06Z
2020-07-15T08:13:22Z,42.805,6.029,13.2977,4.59976,2470.063,2020-7-15T10:14:09Z
2020-07-15T08:16:26Z,42.805,6.029,13.2970,4.59977,2470.077,2020-7-15T10:17:13Z
2020-07-15T08:19:29Z,42.805,6.029,13.2971,4.59976,2470.04,2020-7-15T10:20:16Z
2020-07-15T08:22:32Z,42.805,6.029,13.2976,4.59976,2470.04,2020-7-15T10:23:19Z
2020-07-15T08:25:35Z,42.805,6.029,13.2973,4.59976,2470.04,2020-7-15T10:26:22Z
2020-07-15T08:28:39Z,42.805,6.029,13.2973,4.59978,2469.979,2020-7-15T10:29:25Z
2020-07-15T08:31:42Z,42.805,6.029,13.2974,4.59976,2470.063,2020-7-15T10:32:29Z
2020-07-15T08:34:45Z,42.805,6.029,13.2973,4.59976,2470.04,2020-7-15T10:35:32Z
2020-07-15T08:37:48Z,42.805,6.029,13.2972,4.59976,2470.077,2020-7-15T10:38:35Z
2020-07-15T08:40:52Z,42.805,6.029,13.2971,4.59976,2470.04,2020-7-15T10:41:38Z
2020-07-15T08:43:55Z,42.805,6.029,13.2969,4.59976,2470.053,2020-7-15T10:44:42Z
2020-07-15T08:46:58Z,42.805,6.029,13.2976,4.59976,2470.03,2020-7-15T10:47:45Z
2020-07-15T08:50:02Z,42.805,6.029,13.2973,4.59976,2470.017,2020-7-15T10:50:48Z
2020-07-15T08:53:05Z,42.805,6.029,13.2971,4.59977,2470.017,2020-7-15T10:53:52Z
2020-07-15T08:56:08Z,42.805,6.029,13.2972,4.59976,2470.007,2020-7-15T10:56:55Z
2020-07-15T08:59:11Z,42.805,6.029,13.2971,4.59976,2470.063,2020-7-15T10:59:58Z
2020-07-15T09:02:15Z,42.805,6.029,13.2974,4.59976,2470.04,2020-7-15T11:03:01Z
2020-07-15T09:05:18Z,42.805,6.029,13.2973,4.59978,2470.077,2020-7-15T11:06:05Z
2020-07-15T09:08:21Z,42.805,6.029,13.2972,4.59975,2470.03,2020-7-15T11:09:08Z
2020-07-15T09:11:24Z,42.805,6.029,13.2971,4.59975,2470.03,2020-7-15T11:12:11Z
2020-07-15T09:14:28Z,42.805,6.029,13.2974,4.59978,2470.03,2020-7-15T11:15:14Z
2020-07-15T09:17:31Z,42.805,6.029,13.2975,4.59977,2470.063,2020-7-15T11:18:18Z
2020-07-15T09:20:34Z,42.805,6.029,13.2975,4.59977,2470.04,2020-7-15T11:21:21Z
2020-07-15T09:23:38Z,42.805,6.029,13.2971,4.59976,2470.017,2020-7-15T11:24:24Z
2020-07-15T09:26:41Z,42.805,6.029,13.2976,4.59976,2470.04,2020-7-15T11:27:28Z
2020-07-15T09:29:44Z,42.805,6.029,13.2973,4.59976,2470.063,2020-7-15T11:30:31Z
2020-07-15T09:32:47Z,42.805,6.029,13.2971,4.59976,2470.017,2020-7-15T11:33:34Z
2020-07-15T09:35:50Z,42.805,6.029,13.2976,4.59976,2470.03,2020-7-15T11:36:37Z
2020-07-15T09:38:54Z,42.805,6.029,13.2974,4.59976,2470.007,2020-7-15T11:39:40Z
2020-07-15T09:41:57Z,42.805,6.029,13.2973,4.59978,2470.04,2020-7-15T11:42:44Z
2020-07-15T09:45:00Z,42.805,6.029,13.2974,4.59976,2470.053,2020-7-15T11:45:47Z
2020-07-15T09:48:04Z,42.805,6.029,13.2972,4.59976,2470.017,2020-7-15T11:48:50Z
2020-07-15T09:51:07Z,42.805,6.029,13.2975,4.59976,2470.04,2020-7-15T11:51:54Z
2020-07-15T09:54:10Z,42.805,6.029,13.2977,4.59976,2470.04,2020-7-15T11:54:57Z
2020-07-15T09:57:14Z,42.805,6.029,13.2971,4.59976,2470.04,2020-7-15T11:58:00Z
2020-07-15T10:00:17Z,42.805,6.029,13.2976,4.59976,2470.03,2020-7-15T12:01:03Z
2020-07-15T10:03:20Z,42.805,6.029,13.2974,4.59976,2470.063,2020-7-15T12:04:07Z
2020-07-15T10:06:24Z,42.805,6.029,13.2976,4.59978,2470.017,2020-7-15T12:07:10Z
2020-07-15T10:09:27Z,42.805,6.029,13.2970,4.59978,2470.063,2020-7-15T12:10:14Z
2020-07-15T10:12:30Z,42.805,6.029,13.2973,4.59976,2470.03,2020-7-15T12:13:17Z
2020-07-15T10:15:34Z,42.805,6.029,13.2976,4.59977,2470.053,2020-7-15T12:16:20Z
2020-07-15T10:18:37Z,42.805,6.029,13.2970,4.59977,2470.017,2020-7-15T12:19:24Z
2020-07-15T10:21:40Z,42.805,6.029,13.2972,4.59976,2470.04,2020-7-15T12:22:27Z
2020-07-15T10:24:43Z,42.805,6.029,13.2973,4.59977,2470.017,2020-7-15T12:25:30Z
2020-07-15T10:27:47Z,42.805,6.029,13.2973,4.59977,2470.053,2020-7-15T12:28:33Z
2020-07-15T10:30:50Z,42.805,6.029,13.2974,4.59976,2470.04,2020-7-15T12:31:37Z
2020-07-15T10:33:53Z,42.805,6.029,13.2976,4.59976,2470.03,2020-7-15T12:34:40Z
2020-07-15T10:36:57Z,42.805,6.029,13.2971,4.59976,2470.04,2020-7-15T12:37:43Z
2020-07-15T10:40:00Z,42.805,6.029,13.2974,4.59981,2470.017,2020-7-15T12:40:47Z
2020-07-15T10:43:03Z,42.805,6.029,13.2971,4.59978,2470.04,2020-7-15T12:43:50Z
2020-07-15T10:46:06Z,42.805,6.029,13.2973,4.59978,2470.017,2020-7-15T12:46:53Z
2020-07-15T10:49:10Z,42.805,6.029,13.2972,4.59976,2470.063,2020-7-15T12:49:56Z
2020-07-15T10:52:13Z,42.805,6.029,13.2970,4.59978,2470.053,2020-7-15T12:52:59Z
2020-07-15T10:55:16Z,42.805,6.029,13.2974,4.59980,2470.087,2020-7-15T12:56:03Z
2020-07-15T10:58:19Z,42.805,6.029,13.2974,4.59978,2470.03,2020-7-15T12:59:06Z
2020-07-15T11:01:23Z,42.805,6.029,13.2973,4.59977,2470.017,2020-7-15T13:02:09Z
2020-07-15T11:04:26Z,42.805,6.029,13.2975,4.59979,2470.053,2020-7-15T13:05:13Z
2020-07-15T11:07:29Z,42.805,6.029,13.2974,4.59976,2470.077,2020-7-15T13:08:16Z
2020-07-15T11:10:32Z,42.805,6.029,13.2973,4.59977,2470.04,2020-7-15T13:11:19Z
2020-07-15T11:13:36Z,42.805,6.029,13.2973,4.59976,2470.063,2020-7-15T13:14:22Z
2020-07-15T11:16:39Z,42.805,6.029,13.2971,4.59977,2470.087,2020-7-15T13:17:26Z
2020-07-15T11:19:42Z,42.805,6.029,13.2974,4.59978,2470.063,2020-7-15T13:20:29Z
2020-07-15T11:22:45Z,42.805,6.029,13.2971,4.59976,2470.063,2020-7-15T13:23:32Z
2020-07-15T11:25:49Z,42.805,6.029,13.2975,4.59976,2470.063,2020-7-15T13:26:35Z
2020-07-15T11:28:52Z,42.805,6.029,13.2972,4.59976,2470.053,2020-7-15T13:29:39Z
2020-07-15T11:31:55Z,42.805,6.029,13.2972,4.59976,2470.053,2020-7-15T13:32:42Z
2020-07-15T11:34:58Z,42.805,6.029,13.2974,4.59978,2470.04,2020-7-15T13:35:45Z
2020-07-15T11:38:02Z,42.805,6.029,13.2975,4.59978,2470.04,2020-7-15T13:38:48Z
2020-07-15T11:41:05Z,42.805,6.029,13.2973,4.59978,2470.1,2020-7-15T13:41:52Z
2020-07-15T11:44:08Z,42.805,6.029,13.2975,4.59978,2470.04,2020-7-15T13:44:55Z
2020-07-15T11:47:12Z,42.805,6.029,13.2977,4.59978,2470.077,2020-7-15T13:47:59Z
2020-07-15T11:50:15Z,42.805,6.029,13.2971,4.59976,2470.077,2020-7-15T13:51:02Z
2020-07-15T11:53:18Z,42.805,6.029,13.2974,4.59978,2470.063,2020-7-15T13:54:05Z
2020-07-15T11:56:22Z,42.805,6.029,13.2976,4.59976,2470.087,2020-7-15T13:57:08Z
2020-07-15T11:59:25Z,42.805,6.029,13.2976,4.59978,2470.087,2020-7-15T14:00:12Z
2020-07-15T12:02:28Z,42.805,6.029,13.2974,4.59977,2470.1,2020-7-15T14:03:15Z
2020-07-15T12:05:31Z,42.805,6.029,13.2974,4.59976,2470.077,2020-7-15T14:06:18Z
2020-07-15T12:08:34Z,42.805,6.029,13.2976,4.59978,2470.1,2020-7-15T14:09:21Z
2020-07-15T12:11:38Z,42.805,6.029,13.2975,4.59978,2470.077,2020-7-15T14:12:24Z
2020-07-15T12:14:41Z,42.805,6.029,13.2974,4.59978,2470.087,2020-7-15T14:15:28Z
2020-07-15T12:17:44Z,42.805,6.029,13.2974,4.59978,2470.053,2020-7-15T14:18:31Z
2020-07-15T12:20:48Z,42.805,6.029,13.2976,4.59977,2470.087,2020-7-15T14:21:34Z
2020-07-15T12:23:51Z,42.805,6.029,13.2970,4.59976,2470.11,2020-7-15T14:24:38Z
2020-07-15T12:26:54Z,42.805,6.029,13.2970,4.59977,2470.11,2020-7-15T14:27:41Z
2020-07-15T12:29:57Z,42.805,6.029,13.2974,4.59978,2470.077,2020-7-15T14:30:44Z
2020-07-15T12:33:00Z,42.805,6.029,13.2974,4.59978,2470.11,2020-7-15T14:33:47Z
2020-07-15T12:36:04Z,42.805,6.029,13.2973,4.59976,2470.063,2020-7-15T14:36:51Z
2020-07-15T12:39:07Z,42.805,6.029,13.2974,4.59976,2470.1,2020-7-15T14:39:54Z
2020-07-15T12:42:11Z,42.805,6.029,13.2976,4.59977,2470.1,2020-7-15T14:42:57Z
2020-07-15T12:45:14Z,42.805,6.029,13.2973,4.59976,2470.077,2020-7-15T14:46:01Z
2020-07-15T12:48:17Z,42.805,6.029,13.2971,4.59977,2470.077,2020-7-15T14:49:04Z
2020-07-15T12:51:20Z,42.805,6.029,13.2975,4.59976,2470.1,2020-7-15T14:52:07Z
2020-07-15T12:54:24Z,42.805,6.029,13.2975,4.59978,2470.11,2020-7-15T14:55:10Z
2020-07-15T12:57:27Z,42.805,6.029,13.2972,4.59976,2470.11,2020-7-15T14:58:14Z
2020-07-15T13:00:30Z,42.805,6.029,13.2974,4.59977,2470.087,2020-7-15T15:01:17Z
2020-07-15T13:03:33Z,42.805,6.029,13.2978,4.59976,2470.11,2020-7-15T15:04:20Z
2020-07-15T13:06:37Z,42.805,6.029,13.2974,4.59978,2470.087,2020-7-15T15:07:23Z
2020-07-15T13:09:40Z,42.805,6.029,13.2975,4.59977,2470.087,2020-7-15T15:10:27Z
2020-07-15T13:12:43Z,42.805,6.029,13.2968,4.59977,2470.087,2020-7-15T15:13:30Z
2020-07-15T13:15:46Z,42.805,6.029,13.2976,4.59977,2470.124,2020-7-15T15:16:33Z
2020-07-15T13:18:50Z,42.805,6.029,13.2973,4.59976,2470.124,2020-7-15T15:19:36Z
2020-07-15T13:21:53Z,42.805,6.029,13.2976,4.59977,2470.1,2020-7-15T15:22:40Z
2020-07-15T13:24:56Z,42.805,6.029,13.2974,4.59978,2470.063,2020-7-15T15:25:43Z
2020-07-15T13:27:59Z,42.805,6.029,13.2973,4.59976,2470.11,2020-7-15T15:28:46Z
2020-07-15T13:31:03Z,42.805,6.029,13.2971,4.59978,2470.077,2020-7-15T15:31:50Z
2020-07-15T13:34:06Z,42.805,6.029,13.2975,4.59979,2470.11,2020-7-15T15:34:53Z
2020-07-15T13:37:09Z,42.805,6.029,13.2971,4.59978,2470.11,2020-7-15T15:37:56Z
2020-07-15T13:40:13Z,42.805,6.029,13.2976,4.59976,2470.124,2020-7-15T15:40:59Z
2020-07-15T13:43:16Z,42.805,6.029,13.2975,4.59978,2470.147,2020-7-15T15:44:02Z
2020-07-15T13:46:19Z,42.805,6.029,13.2972,4.59976,2470.11,2020-7-15T15:47:06Z
2020-07-15T13:49:22Z,42.805,6.029,13.2972,4.59978,2470.11,2020-7-15T15:50:09Z
2020-07-15T13:52:26Z,42.805,6.029,13.2974,4.59977,2470.087,2020-7-15T15:53:12Z
2020-07-15T13:55:29Z,42.805,6.029,13.2971,4.59978,2470.124,2020-7-15T15:56:16Z
2020-07-15T13:58:32Z,42.805,6.029,13.2974,4.59978,2470.087,2020-7-15T15:59:19Z
2020-07-15T14:01:36Z,42.805,6.029,13.2972,4.59978,2470.063,2020-7-15T16:02:22Z
2020-07-15T14:04:39Z,42.805,6.029,13.2973,4.59978,2470.147,2020-7-15T16:05:26Z
2020-07-15T14:07:42Z,42.805,6.029,13.2972,4.59979,2470.11,2020-7-15T16:08:29Z
2020-07-15T14:10:45Z,42.805,6.029,13.2974,4.59976,2470.11,2020-7-15T16:11:32Z
2020-07-15T14:13:49Z,42.805,6.029,13.2975,4.59977,2470.147,2020-7-15T16:14:35Z
2020-07-15T14:16:52Z,42.805,6.029,13.2975,4.59977,2470.133,2020-7-15T16:17:39Z
2020-07-15T14:19:55Z,42.805,6.029,13.2975,4.59976,2470.124,2020-7-15T16:20:42Z
2020-07-15T14:22:58Z,42.805,6.029,13.2974,4.59978,2470.124,2020-7-15T16:23:45Z
2020-07-15T14:26:02Z,42.805,6.029,13.2971,4.59976,2470.119,2020-7-15T16:26:48Z
2020-07-15T14:29:05Z,42.805,6.029,13.2972,4.59979,2470.133,2020-7-15T16:29:52Z
2020-07-15T14:32:08Z,42.805,6.029,13.2974,4.59979,2470.11,2020-7-15T16:32:55Z
2020-07-15T14:35:11Z,42.805,6.029,13.2974,4.59978,2470.147,2020-7-15T16:35:58Z
2020-07-15T14:38:15Z,42.805,6.029,13.2974,4.59978,2470.087,2020-7-15T16:39:01Z
2020-07-15T14:41:18Z,42.805,6.029,13.2975,4.59978,2470.11,2020-7-15T16:42:05Z
2020-07-15T14:44:21Z,42.805,6.029,13.2975,4.59978,2470.087,2020-7-15T16:45:08Z
2020-07-15T14:47:24Z,42.805,6.029,13.2970,4.59978,2470.133,2020-7-15T16:48:11Z
2020-07-15T14:50:28Z,42.805,6.029,13.2974,4.59978,2470.133,2020-7-15T16:51:14Z
2020-07-15T14:53:31Z,42.805,6.029,13.2976,4.59977,2470.096,2020-7-15T16:54:18Z
2020-07-15T14:56:34Z,42.805,6.029,13.2969,4.59977,2470.11,2020-7-15T16:57:21Z
2020-07-15T14:59:37Z,42.805,6.029,13.2972,4.59976,2470.133,2020-7-15T17:00:24Z
2020-07-15T15:02:41Z,42.805,6.029,13.2974,4.59978,2470.11,2020-7-15T17:03:28Z
2020-07-15T15:05:44Z,42.805,6.029,13.2972,4.59978,2470.11,2020-7-15T17:06:31Z
2020-07-15T15:08:47Z,42.805,6.029,13.2973,4.59978,2470.124,2020-7-15T17:09:34Z
2020-07-15T15:11:51Z,42.805,6.029,13.2971,4.59979,2470.147,2020-7-15T17:12:37Z
2020-07-15T15:14:54Z,42.805,6.029,13.2968,4.59978,2470.171,2020-7-15T17:15:41Z